Location: Eschertshofen
(49.3064°N, 11.5756°E)
Time: 14:31:53
(UTC+00:00)

Cosmos 1655 Rocket - Pass Details

Date: 18 September 2020
Orbit: 971 x 1005 km, 82.9° (Epoch: 27 October)

Event Time Altitude Azimuth Distance (km) Brightness Sun altitude
Rises 21:04:17 0° 347° (NNW) 3,686 7.9 -32.7°
Reaches altitude 10° 21:06:50 10° 344° (NNW) 2,737 7.1 -33.0°
Enters shadow 21:12:32 57° 284° (WNW) 1,152 4.4 -33.5°
